When you browse on this site, cookies collect data to enhance your experience and personalize the content and advertising you see.
Visit our Privacy Policy to learn more. By continuing to use the site, you agree to this use of cookies and data.
  • In Belgium
  • List of Countries
  • For 7 days
  • Water Temperature
  • Satellite Maps
  • Weather Map
  • Weather Widgets
  • user-avatar
    Login

    Hourly Weather Beringen

    Today, 18 February, Monday

    Time Temperature Precipitation Wind Pressure Humidity
    00:00 +8°C° 0 mm 3 mps 762 mmHg 86%
    01:00 +7°C° 0 mm 3 mps 761 mmHg 86%
    02:00 +7°C° 0 mm 2 mps 761 mmHg 87%
    03:00 +7°C° 0 mm 2 mps 761 mmHg 88%
    04:00 +6°C° 0 mm 2 mps 761 mmHg 89%
    05:00 +6°C° 0 mm 2 mps 761 mmHg 90%
    06:00 +6°C° 0 mm 2 mps 761 mmHg 90%
    07:00 +7°C° 0 mm 3 mps 761 mmHg 86%
    08:00 +8°C° 0 mm 3 mps 761 mmHg 82%
    09:00 +9°C° 0 mm 3 mps 761 mmHg 77%
    10:00 +10°C° 0 mm 3 mps 761 mmHg 73%
    11:00 +11°C° 0 mm 3 mps 760 mmHg 68%
    12:00 +13°C° 0 mm 3 mps 760 mmHg 63%
    13:00 +13°C° 0 mm 3 mps 759 mmHg 62%
    14:00 +14°C° 0 mm 3 mps 759 mmHg 61%
    15:00 +14°C° 0 mm 3 mps 759 mmHg 59%
    16:00 +13°C° 0 mm 3 mps 759 mmHg 67%
    17:00 +11°C° 0 mm 3 mps 759 mmHg 74%
    18:00 +9°C° 0 mm 3 mps 758 mmHg 81%
    19:00 +9°C° 0 mm 3 mps 759 mmHg 81%
    20:00 +9°C° 0 mm 3 mps 759 mmHg 82%
    21:00 +8°C° 0 mm 4 mps 759 mmHg 83%
    22:00 +7°C° 0 mm 4 mps 759 mmHg 83%
    23:00 +8°C° 0 mm 3 mps 759 mmHg 83%

    Tomorrow, 19 February, Tuesday

    Time Temperature Precipitation Wind Pressure Humidity
    00:00 +7°C° 0 mm 3 mps 759 mmHg 84%
    01:00 +7°C° 0.5 mm 3 mps 759 mmHg 87%
    02:00 +7°C° 0.5 mm 3 mps 759 mmHg 89%
    03:00 +7°C° 0.5 mm 3 mps 759 mmHg 92%
    04:00 +7°C° 0.2 mm 3 mps 759 mmHg 92%
    05:00 +6°C° 0.2 mm 4 mps 759 mmHg 91%
    06:00 +6°C° 0.2 mm 4 mps 760 mmHg 91%
    07:00 +6°C° 0 mm 4 mps 760 mmHg 88%
    08:00 +6°C° 0 mm 4 mps 760 mmHg 84%
    09:00 +6°C° 0 mm 5 mps 761 mmHg 81%
    10:00 +7°C° 0 mm 5 mps 761 mmHg 76%
    11:00 +8°C° 0 mm 5 mps 761 mmHg 70%
    12:00 +9°C° 0 mm 5 mps 761 mmHg 65%
    13:00 +9°C° 0 mm 5 mps 761 mmHg 64%
    14:00 +10°C° 0 mm 5 mps 761 mmHg 63%
    15:00 +11°C° 0 mm 4 mps 761 mmHg 62%
    16:00 +10°C° 0 mm 4 mps 761 mmHg 67%
    17:00 +8°C° 0 mm 3 mps 762 mmHg 73%
    18:00 +7°C° 0 mm 2 mps 762 mmHg 78%
    19:00 +7°C° 0 mm 2 mps 762 mmHg 80%
    20:00 +6°C° 0 mm 2 mps 762 mmHg 82%
    21:00 +6°C° 0 mm 2 mps 762 mmHg 84%
    22:00 +4°C° 0 mm 3 mps 762 mmHg 86%
    23:00 +4°C° 0 mm 3 mps 763 mmHg 87%

    Day after tomorrow, 20 February, Wednesday

    Time Temperature Precipitation Wind Pressure Humidity
    00:00 +4°C° 0 mm 3 mps 763 mmHg 88%
    01:00 +4°C° 0 mm 3 mps 762 mmHg 87%
    02:00 +4°C° 0 mm 3 mps 762 mmHg 86%
    03:00 +4°C° 0 mm 3 mps 762 mmHg 85%
    04:00 +4°C° 0 mm 3 mps 762 mmHg 82%
    05:00 +4°C° 0 mm 3 mps 762 mmHg 80%
    06:00 +4°C° 0 mm 4 mps 762 mmHg 77%
    07:00 +5°C° 0 mm 4 mps 762 mmHg 76%
    08:00 +5°C° 0 mm 4 mps 763 mmHg 75%
    09:00 +6°C° 0 mm 5 mps 763 mmHg 74%
    10:00 +7°C° 0 mm 5 mps 763 mmHg 70%
    11:00 +9°C° 0 mm 5 mps 763 mmHg 67%
    12:00 +10°C° 0 mm 5 mps 763 mmHg 63%
    13:00 +10°C° 0 mm 5 mps 763 mmHg 64%
    14:00 +10°C° 0 mm 5 mps 763 mmHg 64%
    15:00 +10°C° 0 mm 5 mps 763 mmHg 65%
    16:00 +10°C° 0.1 mm 4 mps 763 mmHg 69%
    17:00 +8°C° 0.1 mm 4 mps 763 mmHg 74%
    18:00 +9°C° 0.1 mm 3 mps 763 mmHg 78%
    19:00 +8°C° 0 mm 3 mps 764 mmHg 79%
    20:00 +8°C° 0 mm 3 mps 764 mmHg 80%
    21:00 +8°C° 0 mm 3 mps 764 mmHg 81%
    22:00 +6°C° 0 mm 4 mps 764 mmHg 83%
    23:00 +6°C° 0 mm 4 mps 765 mmHg 84%

    21 February, Thursday

    Time Temperature Precipitation Wind Pressure Humidity
    00:00 +6°C° 0 mm 4 mps 765 mmHg 86%
    01:00 +6°C° 0 mm 4 mps 765 mmHg 86%
    02:00 +7°C° 0 mm 4 mps 765 mmHg 86%
    03:00 +7°C° 0 mm 4 mps 765 mmHg 85%
    04:00 +7°C° 0 mm 4 mps 766 mmHg 86%
    05:00 +7°C° 0 mm 4 mps 766 mmHg 87%
    06:00 +7°C° 0 mm 4 mps 766 mmHg 87%
    07:00 +7°C° 0 mm 4 mps 766 mmHg 86%
    08:00 +8°C° 0 mm 4 mps 767 mmHg 85%
    09:00 +8°C° 0 mm 4 mps 767 mmHg 83%
    10:00 +10°C° 0 mm 4 mps 767 mmHg 80%
    11:00 +11°C° 0 mm 4 mps 767 mmHg 77%
    12:00 +12°C° 0 mm 4 mps 768 mmHg 73%
    13:00 +12°C° 0 mm 3 mps 768 mmHg 73%
    14:00 +13°C° 0 mm 3 mps 768 mmHg 73%
    15:00 +13°C° 0 mm 3 mps 768 mmHg 73%
    16:00 +13°C° 0 mm 2 mps 768 mmHg 78%
    17:00 +12°C° 0 mm 2 mps 768 mmHg 83%
    18:00 +10°C° 0 mm 2 mps 769 mmHg 88%
    19:00 +10°C° 0 mm 1 mps 769 mmHg 89%
    20:00 +10°C° 0 mm 1 mps 770 mmHg 90%
    21:00 +9°C° 0 mm 1 mps 770 mmHg 91%
    22:00 +9°C° 0 mm 1 mps 771 mmHg 91%
    23:00 +9°C° 0 mm 1 mps 771 mmHg 91%

    22 February, Friday

    Time Temperature Precipitation Wind Pressure Humidity
    00:00 +9°C° 0 mm 1 mps 771 mmHg 91%
    01:00 +8°C° 0 mm 1 mps 771 mmHg 91%
    02:00 +8°C° 0 mm 1 mps 771 mmHg 91%
    03:00 +8°C° 0 mm 1 mps 772 mmHg 91%
    04:00 +8°C° 0 mm 1 mps 772 mmHg 91%
    05:00 +7°C° 0 mm 1 mps 772 mmHg 91%
    06:00 +7°C° 0 mm 1 mps 773 mmHg 91%
    07:00 +8°C° 0 mm 1 mps 773 mmHg 86%
    08:00 +10°C° 0 mm 1 mps 773 mmHg 81%
    09:00 +11°C° 0 mm 1 mps 774 mmHg 76%
    10:00 +12°C° 0 mm 1 mps 774 mmHg 72%
    11:00 +14°C° 0 mm 1 mps 774 mmHg 67%
    12:00 +16°C° 0 mm 1 mps 774 mmHg 62%
    13:00 +16°C° 0 mm 1 mps 774 mmHg 62%
    14:00 +16°C° 0 mm 1 mps 774 mmHg 62%
    15:00 +16°C° 0 mm 1 mps 774 mmHg 62%
    16:00 +15°C° 0 mm 2 mps 774 mmHg 69%
    17:00 +14°C° 0 mm 2 mps 774 mmHg 76%
    18:00 +12°C° 0 mm 2 mps 774 mmHg 84%
    19:00 +12°C° 0 mm 2 mps 774 mmHg 86%
    20:00 +10°C° 0 mm 2 mps 775 mmHg 88%
    21:00 +10°C° 0 mm 2 mps 775 mmHg 90%
    22:00 +9°C° 0 mm 2 mps 775 mmHg 90%
    23:00 +9°C° 0 mm 2 mps 775 mmHg 91%

    23 February, Saturday

    Time Temperature Precipitation Wind Pressure Humidity
    00:00 +9°C° 0 mm 2 mps 775 mmHg 91%
    01:00 +8°C° 0 mm 2 mps 775 mmHg 91%
    02:00 +8°C° 0 mm 2 mps 775 mmHg 92%
    03:00 +8°C° 0 mm 2 mps 775 mmHg 92%
    04:00 +7°C° 0 mm 2 mps 775 mmHg 91%
    05:00 +7°C° 0 mm 2 mps 775 mmHg 90%
    06:00 +7°C° 0 mm 2 mps 775 mmHg 90%
    07:00 +8°C° 0 mm 2 mps 775 mmHg 83%
    08:00 +9°C° 0 mm 2 mps 775 mmHg 77%
    09:00 +10°C° 0 mm 2 mps 775 mmHg 70%
    10:00 +12°C° 0 mm 2 mps 775 mmHg 63%
    11:00 +14°C° 0 mm 2 mps 775 mmHg 57%
    12:00 +16°C° 0 mm 2 mps 775 mmHg 50%
    13:00 +16°C° 0 mm 2 mps 774 mmHg 49%
    14:00 +16°C° 0 mm 2 mps 774 mmHg 49%
    15:00 +17°C° 0 mm 2 mps 774 mmHg 48%
    16:00 +15°C° 0 mm 2 mps 774 mmHg 54%
    17:00 +14°C° 0 mm 2 mps 774 mmHg 60%
    18:00 +12°C° 0 mm 2 mps 774 mmHg 66%
    19:00 +10°C° 0 mm 2 mps 774 mmHg 69%
    20:00 +10°C° 0 mm 2 mps 774 mmHg 71%
    21:00 +9°C° 0 mm 2 mps 774 mmHg 74%
    22:00 +8°C° 0 mm 2 mps 774 mmHg 75%
    23:00 +8°C° 0 mm 2 mps 773 mmHg 76%
    Show more